| time (UTC) | temp C | wind direction | speed KPH | gust KPH | rain 1hr cm | rain 24hr cm | rain mn cm | humidity % | barometer mb |
| 20260509053038 | 6 | 165 | 11.3 | 0.0 | 0.00 | 0.00 | 0.00 | 51 | 978.6 |
| 20260509051521 | 6 | 167 | 9.7 | 0.0 | 0.00 | 0.00 | 0.00 | 51 | 978.6 |
| 20260509050051 | 7 | 172 | 9.7 | 0.0 | 0.00 | 0.00 | 0.00 | 51 | 978.6 |
| 20260509044522 | 7 | 170 | 9.7 | 0.0 | 0.00 | 0.00 | 0.00 | 44 | 979.6 |
| 20260509043038 | 7 | 168 | 11.3 | 0.0 | 0.00 | 0.00 | 0.00 | 47 | 978.4 |
| 20260509041521 | 7 | 170 | 11.3 | 0.0 | 0.00 | 0.00 | 0.00 | 47 | 978.4 |
| 20260509040052 | 8 | 169 | 11.3 | 0.0 | 0.00 | 0.00 | 0.00 | 47 | 978.4 |
| 20260509034521 | 8 | 182 | 9.7 | 0.0 | 0.00 | 0.00 | 0.00 | 47 | 979.2 |
| 20260509033037 | 8 | 184 | 9.7 | 0.0 | 0.00 | 0.00 | 0.00 | 38 | 979.9 |
| 20260509031521 | 8 | 172 | 9.7 | 0.0 | 0.00 | 0.00 | 0.00 | 38 | 979.9 |
| 20260509030050 | 8 | 172 | 9.7 | 0.0 | 0.00 | 0.00 | 0.00 | 38 | 979.9 |
| 20260509024521 | 9 | 173 | 8.0 | 0.0 | 0.00 | 0.00 | 0.00 | 33 | 980.2 |
| 20260509023039 | 10 | 184 | 9.7 | 0.0 | 0.00 | 0.00 | 0.00 | 33 | 980.2 |
| 20260509021521 | 10 | 199 | 9.7 | 0.0 | 0.00 | 0.00 | 0.00 | 33 | 980.2 |
| 20260509020048 | 10 | 204 | 9.7 | 0.0 | 0.00 | 0.00 | 0.00 | 33 | 980.2 |
| 20260509014521 | 10 | 210 | 9.7 | 0.0 | 0.00 | 0.00 | 0.00 | 34 | 980.1 |
| 20260509013036 | 11 | 233 | 6.4 | 0.0 | 0.00 | 0.00 | 0.00 | 34 | 980.1 |
| 20260509011520 | 11 | 240 | 4.8 | 0.0 | 0.00 | 0.00 | 0.00 | 34 | 980.1 |
| 20260509010045 | 12 | 259 | 4.8 | 0.0 | 0.00 | 0.00 | 0.00 | 34 | 980.1 |
| 20260509004520 | 12 | 261 | 6.4 | 0.0 | 0.00 | 0.00 | 0.00 | 27 | 979.9 |
| 20260509003039 | 12 | 257 | 6.4 | 0.0 | 0.00 | 0.00 | 0.00 | 28 | 981.2 |
| 20260509001520 | 13 | 267 | 6.4 | 0.0 | 0.00 | 0.00 | 0.00 | 28 | 981.2 |
| 20260509000050 | 14 | 268 | 8.0 | 0.0 | 0.00 | 0.00 | 0.00 | 28 | 981.2 |
| 20260508234520 | 15 | 266 | 11.3 | 0.0 | 0.00 | 0.00 | 0.00 | 23 | 980.4 |
| 20260508233040 | 15 | 265 | 12.9 | 0.0 | 0.00 | 0.00 | 0.00 | 22 | 980.9 |
| 20260508231522 | 15 | 267 | 12.9 | 0.0 | 0.00 | 0.00 | 0.00 | 22 | 980.9 |
| 20260508230045 | 15 | 273 | 14.5 | 0.0 | 0.00 | 0.00 | 0.00 | 22 | 980.9 |
| 20260508224522 | 15 | 271 | 16.1 | 0.0 | 0.00 | 0.00 | 0.00 | 23 | 981.0 |
| 20260508223040 | 15 | 271 | 17.7 | 0.0 | 0.00 | 0.00 | 0.00 | 21 | 981.8 |
| 20260508221523 | 15 | 270 | 17.7 | 0.0 | 0.00 | 0.00 | 0.00 | 21 | 981.8 |
| 20260508220045 | 16 | 268 | 19.3 | 0.0 | 0.00 | 0.00 | 0.00 | 21 | 981.8 |
| 20260508214523 | 16 | 268 | 19.3 | 0.0 | 0.00 | 0.00 | 0.00 | 22 | 982.4 |
| 20260508213040 | 16 | 263 | 19.3 | 0.0 | 0.00 | 0.00 | 0.00 | 23 | 981.9 |
| 20260508211522 | 16 | 253 | 17.7 | 0.0 | 0.00 | 0.00 | 0.00 | 23 | 981.9 |
| 20260508210050 | 16 | 253 | 17.7 | 0.0 | 0.00 | 0.00 | 0.00 | 23 | 981.9 |
| 20260508204523 | 16 | 252 | 19.3 | 0.0 | 0.00 | 0.00 | 0.00 | 24 | 982.0 |
| 20260508203041 | 16 | 248 | 19.3 | 0.0 | 0.00 | 0.00 | 0.00 | 21 | 981.7 |
| 20260508201522 | 16 | 247 | 16.1 | 0.0 | 0.00 | 0.00 | 0.00 | 21 | 981.7 |
| 20260508200046 | 16 | 245 | 16.1 | 0.0 | 0.00 | 0.00 | 0.00 | 19 | 981.7 |
| 20260508194523 | 16 | 241 | 16.1 | 0.0 | 0.00 | 0.00 | 0.00 | 20 | 982.0 |
| 20260508193037 | 16 | 238 | 16.1 | 0.0 | 0.00 | 0.00 | 0.00 | 20 | 982.0 |
| 20260508191522 | 16 | 254 | 16.1 | 0.0 | 0.00 | 0.00 | 0.00 | 20 | 982.0 |
| 20260508190045 | 16 | 254 | 16.1 | 0.0 | 0.00 | 0.00 | 0.00 | 20 | 982.0 |
| 20260508184523 | 16 | 250 | 16.1 | 0.0 | 0.00 | 0.00 | 0.00 | 26 | 982.4 |
| 20260508183042 | 16 | 243 | 16.1 | 0.0 | 0.00 | 0.00 | 0.00 | 25 | 982.1 |
| 20260508181522 | 16 | 242 | 16.1 | 0.0 | 0.00 | 0.00 | 0.00 | 25 | 982.1 |
| 20260508180049 | 16 | 244 | 16.1 | 0.0 | 0.00 | 0.00 | 0.00 | 25 | 982.1 |
| 20260508174523 | 15 | 243 | 17.7 | 0.0 | 0.00 | 0.00 | 0.00 | 31 | 983.1 |
| 20260508173041 | 15 | 244 | 17.7 | 0.0 | 0.00 | 0.00 | 0.00 | 31 | 983.1 |
| 20260508171522 | 15 | 243 | 17.7 | 0.0 | 0.00 | 0.00 | 0.00 | 31 | 983.1 |
| 20260508170047 | 15 | 246 | 16.1 | 0.0 | 0.00 | 0.00 | 0.00 | 31 | 983.1 |
| 20260508164522 | 15 | 247 | 16.1 | 0.0 | 0.00 | 0.00 | 0.00 | 36 | 983.5 |
| 20260508163041 | 14 | 242 | 14.5 | 0.0 | 0.00 | 0.00 | 0.00 | 36 | 983.7 |
| 20260508161523 | 13 | 236 | 14.5 | 0.0 | 0.00 | 0.00 | 0.00 | 36 | 983.6 |
| 20260508160050 | 13 | 233 | 14.5 | 0.0 | 0.00 | 0.00 | 0.00 | 36 | 983.6 |
| 20260508154523 | 12 | 224 | 12.9 | 0.0 | 0.00 | 0.00 | 0.00 | 46 | 984.6 |
| 20260508153042 | 12 | 205 | 11.3 | 0.0 | 0.00 | 0.00 | 0.00 | 45 | 983.5 |
| 20260508151522 | 12 | 196 | 11.3 | 0.0 | 0.00 | 0.00 | 0.00 | 45 | 983.5 |
| 20260508150049 | 11 | 198 | 11.3 | 0.0 | 0.00 | 0.00 | 0.00 | 45 | 983.5 |
| 20260508144523 | 11 | 195 | 9.7 | 0.0 | 0.00 | 0.00 | 0.00 | 59 | 983.7 |
| 20260508143040 | 11 | 192 | 9.7 | 0.0 | 0.00 | 0.00 | 0.00 | 57 | 983.8 |
| 20260508141523 | 10 | 187 | 8.0 | 0.0 | 0.00 | 0.00 | 0.00 | 57 | 983.8 |
| 20260508140053 | 10 | 185 | 8.0 | 0.0 | 0.00 | 0.00 | 0.00 | 60 | 983.7 |
| 20260508134523 | 9 | 188 | 6.4 | 0.0 | 0.00 | 0.00 | 0.00 | 70 | 983.5 |
| 20260508133038 | 8 | 190 | 9.7 | 0.0 | 0.00 | 0.00 | 0.00 | 70 | 983.5 |
| 20260508131523 | 7 | 190 | 9.7 | 0.0 | 0.00 | 0.00 | 0.00 | 70 | 983.5 |
| 20260508130052 | 6 | 186 | 9.7 | 0.0 | 0.00 | 0.00 | 0.00 | 70 | 983.5 |
| 20260508124523 | 6 | 182 | 9.7 | 0.0 | 0.00 | 0.00 | 0.00 | 83 | 982.8 |
| 20260508123041 | 5 | 191 | 8.0 | 0.0 | 0.00 | 0.00 | 0.00 | 83 | 983.4 |
| 20260508121522 | 5 | 186 | 6.4 | 0.0 | 0.00 | 0.00 | 0.00 | 83 | 983.4 |
| 20260508120057 | 3 | 176 | 3.2 | 0.0 | 0.00 | 0.00 | 0.00 | 83 | 983.4 |
| 20260508114522 | 2 | 171 | 3.2 | 0.0 | 0.00 | 0.00 | 0.00 | 80 | 982.9 |
| 20260508113043 | 2 | 172 | 4.8 | 0.0 | 0.00 | 0.00 | 0.00 | 76 | 983.5 |
| 20260508111522 | 2 | 159 | 4.8 | 0.0 | 0.00 | 0.00 | 0.00 | 76 | 983.6 |
| 20260508110046 | 1 | 153 | 4.8 | 0.0 | 0.00 | 0.00 | 0.00 | 76 | 983.6 |
| 20260508104525 | 1 | 148 | 3.2 | 0.0 | 0.00 | 0.00 | 0.00 | 76 | 982.7 |
| 20260508103042 | 1 | 127 | 3.2 | 0.0 | 0.00 | 0.00 | 0.00 | 75 | 983.7 |
| 20260508101525 | 2 | 135 | 1.6 | 0.0 | 0.00 | 0.00 | 0.00 | 75 | 983.7 |
| 20260508100045 | 2 | 146 | 1.6 | 0.0 | 0.00 | 0.00 | 0.00 | 75 | 983.7 |
| 20260508094524 | 2 | 135 | 1.6 | 0.0 | 0.00 | 0.00 | 0.00 | 74 | 983.0 |
| 20260508093038 | 2 | 135 | 3.2 | 0.0 | 0.00 | 0.00 | 0.00 | 81 | 983.7 |
| 20260508091525 | 2 | 180 | 4.8 | 0.0 | 0.00 | 0.00 | 0.00 | 81 | 983.7 |
| 20260508090049 | 2 | 186 | 6.4 | 0.0 | 0.00 | 0.00 | 0.00 | 81 | 983.7 |
| 20260508084524 | 2 | 189 | 6.4 | 0.0 | 0.00 | 0.00 | 0.00 | 77 | 983.2 |
| 20260508083042 | 2 | 189 | 6.4 | 0.0 | 0.00 | 0.00 | 0.00 | 74 | 983.0 |
| 20260508081524 | 3 | 186 | 6.4 | 0.0 | 0.00 | 0.00 | 0.00 | 74 | 983.0 |
| 20260508080051 | 3 | 177 | 6.4 | 0.0 | 0.00 | 0.00 | 0.00 | 74 | 983.0 |
| 20260508074525 | 3 | 177 | 6.4 | 0.0 | 0.00 | 0.00 | 0.00 | 78 | 983.9 |
| 20260508073043 | 3 | 185 | 6.4 | 0.0 | 0.00 | 0.00 | 0.00 | 78 | 983.9 |
| 20260508071523 | 3 | 199 | 6.4 | 0.0 | 0.00 | 0.00 | 0.00 | 78 | 983.9 |
| 20260508070052 | 3 | 199 | 6.4 | 0.0 | 0.00 | 0.00 | 0.00 | 78 | 983.9 |
| 20260508064523 | 3 | 198 | 6.4 | 0.0 | 0.00 | 0.00 | 0.00 | 57 | 983.5 |
| 20260508063039 | 4 | 210 | 6.4 | 0.0 | 0.00 | 0.00 | 0.00 | 67 | 984.0 |
| 20260508061524 | 4 | 196 | 4.8 | 0.0 | 0.00 | 0.00 | 0.00 | 67 | 984.0 |
| 20260508060058 | 5 | 199 | 6.4 | 0.0 | 0.00 | 0.00 | 0.00 | 67 | 984.0 |
| 20260508054523 | 5 | 205 | 4.8 | 0.0 | 0.00 | 0.00 | 0.00 | 61 | 984.7 |